Location: York
(31.8935°S, 116.7682°E)
Time: 01:02:16
(UTC+08:00)

DX 1 - Pass Details

Date: 03 August 2021
Orbit: 618 x 631 km, 98.4° (Epoch: 23 September)

Event Time Altitude Azimuth Distance (km) Brightness Sun altitude
Rises 18:15:13 0° 46° (NE) 2,894 ? -8.3°
Reaches altitude 10° 18:17:49 10° 62° (ENE) 1,995 ? -8.8°
Maximum altitude 18:21:04 21° 111° (ESE) 1,414 ? -9.5°
Drops below altitude 10° 18:24:20 10° 159° (SSE) 2,011 ? -10.1°
Sets 18:26:57 0° 175° (S) 2,925 ? -10.7°
